Regional Weather Roundup
Issued by NWS New Orleans/Baton Rouge, LA

Home | Current Version | Previous Version | Text Only | Print | Product List | Glossary Off
Versions: 1 2 3 4 5 6 7 8 9 10 11 12 13 14 15 16 17 18 19 20 21 22 23 24 25 26 27 28 29 30 31 32 33 34 35 36 37 38 39 40 41 42 43 44 45 46 47 48 49 50

926
ASUS44 KLIX 230405
RWRLIX
NEW ORLEANS REGIONAL WEATHER ROUNDUP
NATIONAL WEATHER SERVICE NEW ORLEANS LA
1100 PM CDT WED OCT 22 2014

NOTE: "FAIR" INDICATES FEW OR NO CLOUDS BELOW 12,000 FEET WITH NO
      SIGNIFICANT WEATHER AND/OR OBSTRUCTIONS TO VISIBILITY.
      SKY/WX - SKY CONDITION AND SIGNIFICANT WEATHER.
      TMP - AIR TEMPERATURE.     DP    - DEWPOINT TEMPERATURE.
      RH  - RELATIVE HUMIDITY.   PRES  - PRESSURE.
      HI  - HEAT INDEX.          WCI   - WIND CHILL INDEX.

*  THESE STATIONS ARE NOT NWS OR FAA STATIONS AND ARE NOT UNDER
   NWS QUALITY CONTROL.

LAZ038-040-048-061>063-065>067-069-230500-
SOUTHEAST LOUISIANA

CITY           SKY/WX    TMP DP  RH WIND       PRES   REMARKS
N.O. AUDUBON   NOT AVBL
N.O. INTL ARPT CLEAR     70  53  54 NE12      30.08R
N.O. LAKEFRONT LGT RAIN  71  55  56 NE18      30.08S
N.O. DOWNTOWN*   N/A     70  50  49 NE7       30.09S
SLIDELL        CLEAR     55  51  86 N5        30.09R
BATON ROUGE    CLEAR     60  52  74 N6        30.10R
BOOTHVILLE     CLEAR     71  62  73 N5        30.06S
BELLE CHASSE   CLEAR     63  53  70 NE6       30.07S
BOGALUSA*        N/A     53  49  86 N5        30.12R
NEW ROADS*       N/A     59  53  79 NE6       30.10S
GONZALES*        N/A     63  54  71 CALM      30.09R
HAMMOND*       CLEAR     57  50  77 N3        30.12R
HOUMA*         CLEAR     58  56  92 CALM      30.07S
PORT FOURCHON* CLEAR     72  61  68 NE7       30.09S

$$

MSZ070-080>082-230500-
SOUTHERN MISSISSIPPI

CITY           SKY/WX    TMP DP  RH WIND       PRES   REMARKS
MCCOMB         CLEAR     60  49  66 N5        30.12R
GULFPORT       CLEAR     62  48  60 NE5       30.08S
BILOXI         CLEAR     60  49  68 NE7       30.09R
PASCAGOULA     CLEAR     52  49  89 CALM      30.10R

$$

COASTAL OBSERVATIONS
LAKE AND NEARSHORE STATIONS

STATION/POSITION TIME  TEMP    WIND        PRES    WAVE
                       AIR SEA DIR/SP/G            HT/PER
                 (UTC) (F)     (DEG/KT/KT) (MB)    (FT/S)
PASCAGOULA       0400   64      40/  7/ 10 1018.4
WAVELAND YACHT   0400   66      60/  9/ 11 1018.1
GRAND ISLE       0400   71 75   60/  5/  8 1018.5
SOUTHWEST PASS   0400   72 82              1017.7
NEW CANAL        0400   71 72   50/ 18/ 20 1018.6
SHELL BEACH      0400   71 69   50/ 15/ 17 1018.1

OFFSHORE STATIONS

STATION/POSITION TIME  TEMP    WIND        PRES    WAVE
                       AIR SEA DIR/SP/G            HT/PER
                 (UTC) (F)     (DEG/KT/KT) (MB)    (FT/S)
64 S DAUPHIN ISL 0333   75 79   30/ 17/ 19 1017.7    3/ 5

$$




USA.gov is the U.S. government's official web portal to all federal, state and local government web resources and services.